OBJECT BT, 68481

Orbit data source: Space-Track

You're viewing an uncataloged RSO

Recently launched and/or uncataloged RSOs may have evolving metadata. Metadata may include the following, but is not limited to: Owner, Manufacturer, Bus, Motor, and Mission.

OBJECT BT, 68481 is a satellite in SSO that was launched on Mon, 30 Mar 2026 UTC via an FALCON 9 launch vehicle from the Air Force Western Test Range (AFWTR). Unknown objects in Earth's orbit typically refer to objects detected orbiting the Earth but have not yet been identified or cataloged. These objects could be anything from previously untracked satellites, spent rocket stages, debris from satellite collisions, or even natural meteoroids temporarily captured by Earth's gravity.

Loading next visibility...
Identifier
68481, 2026-067BT
Orbit
SSO
Country
Flag of TBDTBD
Related business
Manufacturer
PYRAS
Mission
Operational Civil Imaging
Bus & Motor
CUBESAT 8U, Unknown motor
Mass
12 kg wet, 12 kg dry
Launch date (UTC)
2026-03-30 (4 months ago)
Launch vehicle
FALCON 9
Launch site
Air Force Western Test Range (AFWTR)
Object type
Unknown
Shape & HBR
Box, 0.2 m
Radar Cross Section
0.100 m², Medium (>0.1 m² and < 1m²)

Expand to show TLE details & history
Last TLE update: 7 hours ago

TLE from 7 hours ago
0 OBJECT BT
1 68481U 26067BT  26220.13650953  .00000188  00000-0  23969-4 0  9992
2 68481  97.7711 177.7782 0004012 124.0443 236.1157 14.92196867 19474
Epoch: 2026-08-08T03:16Z
TLE epoch observation values (Epoch: 2026-08-08T03:16:34.423Z)
Latitude
-0.00005°
Longitude
171.98259°
Altitude
595.689 km
Speed
7.561 km/s
True Right ascension
11h 51m 06s
True Declination
0° 00' 00"
Sunlit
Object was in daylight at epoch
Visualization orbit readout
Latitude
Unknown
Longitude
Unknown
Altitude
Unknown
Speed
Unknown
Apparent Right ascension
Unknown
Apparent Declination
Unknown
Sunlit
N/A
Visualization observer readout
Local Sidereal Time
00:06:06
Azimuth
Unknown
Elevation
Unknown
Doppler factor
Unknown
Orbital elements
Apogee altitude
590.901 km
Perigee altitude
585.311 km
Semi-major axis
6,966.243 km
Eccentricity
0.0004
Inclination
97.7711°
RAAN
177.7782°
Arg. of periapsis
124.0443°
True anomaly
236.07754°
Mean anomaly
236.1157°
Eccentric anomaly
236.09662°
Mean motion
3.73289 °/min
Orbital period
96.44 mins
BSTAR
0.000023969
Loading maneuver chart data...
Computing Atmospheric mass density...
Loading historical data...
Loading historical data...
Loading historical data...
Loading historical data...
Loading historical data...
Loading historical data...
Loading historical data...

Documentation

Showing up to 5 results
|